User: anonymous   Login
Location: Drocourt
(49.0571°N, 1.7669°E)
Time: 22:04:01
(UTC+00:00)
Language:

Cosmos 2074 Rocket - Orbit

View from above orbital plane
View from above orbital plane
View from above satellite
View from above satellite

Ground track
Ground track

The orbit data is extracted from the following two-line orbital elements,

1 20578U 90036B   23150.85698088  .00000015  00000-0 -72482-6 0  9999
2 20578  82.9438 186.1263 0013341  25.0856 147.6211 13.76450603662970
Epoch (UTC): 30 May 2023 20:34:03
Eccentricity: 0.0013341
inclination: 82.9438°
perigee height: 966 km
apogee height: 986 km
right ascension of ascending node: 186.1263°
argument of perigee: 25.0856°
revolutions per day: 13.76450603
mean anomaly at epoch: 147.6211°
orbit number at epoch: 66297

The dashed part of the orbit path shows where the satellite is in the earth's shadow,  

DLR